KASL

Details ICAO KASL
Name HARRISON CO
Region United States
Timezone America/Chicago (UTC-5.0)
Plans Departing 1
Arriving 1
Stats Elevation 357 ft / 109 m (AMSL)
Location 32.520730° -94.307780°
Runways 2
Magnetic Variation 1.695° E
Sunrise 2018-05-20 11:17:08 UTC / 2018-05-20 06:17:08 Local
Sunset 2018-05-21 01:13:15 UTC / 2018-05-20 20:13:15 Local
Advertisement - Login to hide

Runways

ID Width Length Bearing (true) Bearing (mag) Surface Threshold Offset Overrun Length
01 60 ft / 18 m 3,306 ft / 1,008 m 21.63° 19.93° Asphalt 0 ft / 0 m 0 ft / 0 m
15 100 ft / 30 m 5,011 ft / 1,527 m 156.80° 155.10° Asphalt 0 ft / 0 m 0 ft / 0 m
19 60 ft / 18 m 3,306 ft / 1,008 m 201.63° 199.93° Asphalt 0 ft / 0 m 0 ft / 0 m
33 100 ft / 30 m 5,011 ft / 1,527 m 336.81° 335.11° Asphalt 0 ft / 0 m 0 ft / 0 m

Map

Weather


0- 5 10 15 20 25 30 35+ Temperature / ° C

Clouds and Precipitation
Forecast for 2018-05-21 06:00 UTC. Updated 38 minutes ago

Ground ~20,000 ft ~40,000 ft Winds

METAR

KASL 210335Z AUTO 00000KT 10SM SCT120 20/18 A3005 RMK AO1 T01970182

TAF

Not found

Frequencies

Recorded 118.67 MHz AWOS 3
Approach 119.90 MHz SHREVEPORT APP/DEP
Unicom 122.80 MHz CTAF/UNICOM
Warning: Do not use this data for real-world aviation or navigation. No guarantee of current accuracy is given.